📊 Raw Sensor Data
Showing records 49976 to 50000 of 85,128 total
| ID | Distance (ft) | Battery V | Battery A | Int Temp (°F) | Int Humid (%) | Ext Temp (°F) | Solar V | RSSI | SNR | Time Stamp |
|---|---|---|---|---|---|---|---|---|---|---|
| 35165 | -- | 4.05 | 0 | 64 | 40 | 64 | 5.10 | -77 | 8 | 03/16/2025 04:30 PM |
| 35164 | 15.1 | 4.05 | 0 | 64 | 40 | 62 | 5.10 | -75 | 7 | 03/16/2025 04:15 PM |
| 35163 | 15.1 | 4.05 | 0 | 64 | 40 | 62 | 5.10 | -75 | 8 | 03/16/2025 04:00 PM |
| 35162 | 15.1 | 4.05 | 0 | 65 | 40 | 63 | 5.10 | -76 | 8 | 03/16/2025 03:45 PM |
| 35161 | 15.1 | 4.05 | 0 | 63 | 41 | 62 | 5.10 | -77 | 7 | 03/16/2025 03:30 PM |
| 35160 | -- | 4.05 | 0 | 65 | 40 | 63 | 5.10 | -76 | 9 | 03/16/2025 03:15 PM |
| 35159 | -- | 4.05 | 0 | 64 | 40 | 63 | 5.10 | -75 | 8 | 03/16/2025 03:00 PM |
| 35158 | -- | 4.07 | 0 | 64 | 41 | 62 | 5.10 | -77 | 8 | 03/16/2025 02:45 PM |
| 35157 | -- | 4.15 | 0 | 66 | 40 | 63 | 5.10 | -77 | 8 | 03/16/2025 02:30 PM |
| 35156 | -- | 4.05 | 0 | 66 | 39 | 63 | 5.10 | -77 | 9 | 03/16/2025 02:15 PM |
| 35155 | -- | 4.05 | 0 | 65 | 40 | 64 | 5.10 | -77 | 8 | 03/16/2025 02:01 PM |
| 35154 | -- | 4.05 | 0 | 65 | 40 | 62 | 5.10 | -77 | 8 | 03/16/2025 01:45 PM |
| 35153 | -- | 4.05 | 0 | 65 | 40 | 63 | 5.10 | -77 | 8 | 03/16/2025 01:30 PM |
| 35152 | -- | 4.05 | 0 | 66 | 39 | 62 | 5.10 | -77 | 8 | 03/16/2025 01:15 PM |
| 35151 | -- | 4.05 | 0 | 67 | 38 | 64 | 5.10 | -78 | 8 | 03/16/2025 01:00 PM |
| 35150 | -- | 4.05 | 0 | 65 | 39 | 62 | 5.10 | -80 | 7 | 03/16/2025 12:45 PM |
| 35149 | 15.3 | 4.14 | 0 | 64 | 39 | 63 | 5.10 | -78 | 7 | 03/16/2025 12:30 PM |
| 35148 | -- | 4.05 | 0 | 66 | 36 | 62 | 5.10 | -77 | 8 | 03/16/2025 12:00 PM |
| 35147 | -- | 4.05 | 0 | 64 | 36 | 62 | 5.10 | -78 | 8 | 03/16/2025 11:45 AM |
| 35146 | -- | 4.05 | 0 | 62 | 36 | 61 | 5.10 | -79 | 8 | 03/16/2025 11:30 AM |
| 35145 | -- | 4.05 | 0 | 61 | 37 | 61 | 5.10 | -78 | 8 | 03/16/2025 11:15 AM |
| 35144 | -- | 4.05 | 0 | 59 | 37 | 59 | 5.10 | -77 | 9 | 03/16/2025 11:00 AM |
| 35143 | -- | 4.05 | 0 | 58 | 37 | 59 | 5.10 | -78 | 8 | 03/16/2025 10:45 AM |
| 35142 | -- | 4.04 | 0 | 57 | 36 | 58 | 5.10 | -76 | 9 | 03/16/2025 10:30 AM |
| 35141 | -- | 4.05 | 0 | 56 | 36 | 57 | 5.10 | -79 | 9 | 03/16/2025 10:15 AM |